Location: *
(48.7358°N, 0.3111°E)
Time: 05:15:57
(UTC+00:00)

NOSS 3-4 (A) - Pass Details

Date: 22 October 2019
Orbit: 907 x 1306 km, 63.4° (Epoch: 01 November)

Event Time Altitude Azimuth Distance (km) Brightness Sun altitude
Exits shadow 05:30:23 13° 266° (W) 2,456 5.0 -10.3°
Maximum altitude 05:35:28 37° 330° (NNW) 1,473 4.2 -9.5°
Drops below altitude 10° 05:41:33 10° 37° (NE) 2,839 6.4 -8.5°
Sets 05:44:32 0° 46° (NE) 3,859 7.2 -8.0°
